| time (UTC) | temp C | wind direction | speed KPH | gust KPH | rain 1hr cm | rain 24hr cm | rain mn cm | humidity % | barometer mb |
| 20260504203004 | 16 | 123 | 0.0 | 0.0 | 0.99 | 0.99 | 0.99 | 91 | 1002.9 |
| 20260504202501 | 16 | 194 | 0.0 | 6.4 | 0.99 | 0.99 | 0.99 | 90 | 1002.8 |
| 20260504201504 | 16 | 88 | 1.6 | 12.9 | 0.99 | 0.99 | 0.99 | 89 | 1002.8 |
| 20260504201002 | 16 | 196 | 3.2 | 9.7 | 0.99 | 0.99 | 0.99 | 90 | 1002.7 |
| 20260504200504 | 16 | 274 | 1.6 | 12.9 | 0.99 | 0.99 | 0.99 | 90 | 1003.1 |
| 20260504200006 | 16 | 51 | 0.0 | 14.5 | 0.99 | 0.99 | 0.99 | 89 | 1003.2 |
| 20260504194504 | 17 | 123 | 3.2 | 11.3 | 0.58 | 0.58 | 0.58 | 86 | 1002.0 |
| 20260504194006 | 17 | 101 | 1.6 | 6.4 | 0.23 | 0.23 | 0.23 | 83 | 1004.0 |
| 20260504193004 | 18 | 12 | 1.6 | 4.8 | 0.00 | 0.00 | 0.00 | 76 | 1004.4 |
| 20260504192004 | 18 | 15 | 1.6 | 3.2 | 0.00 | 0.00 | 0.00 | 73 | 1004.0 |
| 20260504191504 | 18 | 33 | 0.0 | 4.8 | 0.00 | 0.00 | 0.00 | 71 | 1004.0 |
| 20260504191000 | 19 | 29 | 1.6 | 4.8 | 0.00 | 0.00 | 0.00 | 71 | 1004.1 |
| 20260504190504 | 18 | 360 | 3.2 | 6.4 | 0.00 | 0.00 | 0.00 | 70 | 1004.1 |
| 20260504190004 | 18 | 5 | 3.2 | 6.4 | 0.00 | 0.00 | 0.00 | 72 | 1004.0 |
| 20260504185504 | 18 | 5 | 3.2 | 4.8 | 0.00 | 0.00 | 0.00 | 73 | 1004.1 |
| 20260504184500 | 19 | 13 | 0.0 | 0.0 | 0.00 | 0.00 | 0.00 | 73 | 1003.8 |
| 20260504184002 | 19 | 72 | 0.0 | 0.0 | 0.00 | 0.00 | 0.00 | 72 | 1003.8 |
| 20260504182002 | 20 | 72 | 0.0 | 0.0 | 0.00 | 0.00 | 0.00 | 69 | 1004.0 |
| 20260504181504 | 20 | 72 | 0.0 | 0.0 | 0.00 | 0.00 | 0.00 | 69 | 1003.9 |
| 20260504175504 | 20 | 162 | 0.0 | 3.2 | 0.00 | 0.00 | 0.00 | 68 | 1003.9 |
| 20260504172504 | 19 | 122 | 1.6 | 6.4 | 0.00 | 0.00 | 0.00 | 68 | 1004.0 |
| 20260504170504 | 19 | 184 | 0.0 | 4.8 | 0.00 | 0.00 | 0.00 | 70 | 1004.7 |
| 20260504080959 | 15 | 82 | 0.0 | 0.0 | 0.00 | 0.00 | 0.00 | 74 | 1006.6 |
| 20260504045959 | 16 | 181 | 0.0 | 3.2 | 0.00 | 0.00 | 0.00 | 66 | 1006.2 |
| 20260504045500 | 16 | 167 | 0.0 | 3.2 | 0.00 | 0.00 | 0.00 | 66 | 1006.2 |
| 20260504045000 | 16 | 175 | 0.0 | 3.2 | 0.00 | 0.00 | 0.00 | 66 | 1006.4 |
| 20260504044503 | 16 | 168 | 0.0 | 3.2 | 0.00 | 0.00 | 0.00 | 65 | 1006.6 |
| 20260504042459 | 16 | 210 | 0.0 | 6.4 | 0.00 | 0.00 | 0.00 | 66 | 1007.1 |
| 20260504041959 | 16 | 238 | 0.0 | 8.0 | 0.00 | 0.00 | 0.00 | 65 | 1007.3 |
| 20260504041500 | 16 | 197 | 1.6 | 4.8 | 0.00 | 0.00 | 0.00 | 64 | 1007.5 |
| 20260504041000 | 16 | 194 | 1.6 | 4.8 | 0.00 | 0.00 | 0.00 | 65 | 1007.5 |
| 20260504033958 | 16 | 180 | 0.0 | 3.2 | 0.00 | 0.00 | 0.00 | 64 | 1007.6 |
| 20260504031001 | 17 | 232 | 0.0 | 1.6 | 0.00 | 0.00 | 0.00 | 61 | 1007.6 |
| 20260504030002 | 17 | 196 | 0.0 | 8.0 | 0.00 | 0.00 | 0.00 | 61 | 1007.7 |
| 20260504025502 | 17 | 217 | 0.0 | 8.0 | 0.00 | 0.00 | 0.00 | 60 | 1007.7 |
| 20260504024000 | 17 | 149 | 1.6 | 8.0 | 0.00 | 0.00 | 0.00 | 59 | 1007.7 |
| 20260504023500 | 17 | 327 | 1.6 | 8.0 | 0.00 | 0.00 | 0.00 | 59 | 1007.7 |
| 20260504022504 | 18 | 223 | 1.6 | 4.8 | 0.00 | 0.00 | 0.00 | 57 | 1007.7 |
| 20260504021500 | 18 | 182 | 1.6 | 3.2 | 0.00 | 0.00 | 0.00 | 56 | 1007.6 |
| 20260504021000 | 18 | 278 | 0.0 | 4.8 | 0.00 | 0.00 | 0.00 | 56 | 1007.6 |
| 20260504020503 | 18 | 205 | 1.6 | 4.8 | 0.00 | 0.00 | 0.00 | 56 | 1007.5 |
| 20260504014958 | 18 | 165 | 1.6 | 3.2 | 0.00 | 0.00 | 0.00 | 55 | 1007.3 |
| 20260504014000 | 18 | 147 | 0.0 | 6.4 | 0.00 | 0.00 | 0.00 | 55 | 1007.3 |
| 20260504012959 | 19 | 224 | 0.0 | 3.2 | 0.00 | 0.00 | 0.00 | 54 | 1007.2 |
| 20260504012500 | 19 | 170 | 1.6 | 3.2 | 0.00 | 0.00 | 0.00 | 53 | 1007.2 |
| 20260504012000 | 19 | 269 | 0.0 | 1.6 | 0.00 | 0.00 | 0.00 | 53 | 1007.2 |
| 20260504011458 | 20 | 180 | 0.0 | 4.8 | 0.00 | 0.00 | 0.00 | 53 | 1007.2 |
| 20260504010502 | 20 | 175 | 1.6 | 3.2 | 0.00 | 0.00 | 0.00 | 51 | 1007.1 |
| 20260504004459 | 21 | 182 | 0.0 | 3.2 | 0.00 | 0.00 | 0.00 | 49 | 1007.2 |
| 20260504003959 | 21 | 188 | 0.0 | 1.6 | 0.00 | 0.00 | 0.00 | 49 | 1007.2 |
| 20260504003459 | 21 | 179 | 0.0 | 3.2 | 0.00 | 0.00 | 0.00 | 49 | 1007.2 |
| 20260504003000 | 21 | 188 | 0.0 | 4.8 | 0.00 | 0.00 | 0.00 | 48 | 1007.1 |
| 20260504002459 | 21 | 302 | 0.0 | 4.8 | 0.00 | 0.00 | 0.00 | 48 | 1007.2 |
| 20260504001959 | 22 | 207 | 0.0 | 4.8 | 0.00 | 0.00 | 0.00 | 47 | 1007.2 |
| 20260503235458 | 23 | 242 | 1.6 | 4.8 | 0.00 | 0.00 | 0.00 | 43 | 1007.4 |
| 20260503234500 | 23 | 277 | 1.6 | 11.3 | 0.00 | 0.00 | 0.00 | 42 | 1007.4 |
| 20260503234000 | 23 | 218 | 3.2 | 11.3 | 0.00 | 0.00 | 0.00 | 41 | 1007.4 |
| 20260503232459 | 24 | 236 | 3.2 | 12.9 | 0.00 | 0.00 | 0.00 | 40 | 1007.3 |
| 20260503230459 | 24 | 190 | 3.2 | 14.5 | 0.00 | 0.00 | 0.00 | 38 | 1007.7 |
| 20260503225500 | 24 | 309 | 3.2 | 16.1 | 0.00 | 0.00 | 0.00 | 39 | 1007.7 |
| 20260503223959 | 24 | 210 | 4.8 | 19.3 | 0.00 | 0.00 | 0.00 | 39 | 1007.8 |
| 20260503223000 | 24 | 181 | 1.6 | 24.1 | 0.00 | 0.00 | 0.00 | 39 | 1007.8 |
| 20260503222500 | 24 | 71 | 8.0 | 24.1 | 0.00 | 0.00 | 0.00 | 38 | 1007.9 |
| 20260503220002 | 24 | 110 | 4.8 | 19.3 | 0.00 | 0.00 | 0.00 | 38 | 1008.0 |
| 20260503215001 | 24 | 360 | 3.2 | 19.3 | 0.00 | 0.00 | 0.00 | 40 | 1008.1 |
| 20260503214502 | 24 | 225 | 4.8 | 16.1 | 0.00 | 0.00 | 0.00 | 41 | 1008.1 |
| 20260503213504 | 24 | 238 | 1.6 | 16.1 | 0.00 | 0.00 | 0.00 | 41 | 1008.1 |
| 20260503212504 | 23 | 188 | 4.8 | 20.9 | 0.00 | 0.00 | 0.00 | 39 | 1008.3 |
| 20260503212004 | 23 | 323 | 4.8 | 19.3 | 0.00 | 0.00 | 0.00 | 40 | 1008.5 |
| 20260503210003 | 23 | 150 | 4.8 | 33.8 | 0.00 | 0.00 | 0.00 | 40 | 1008.8 |